QPF
0.00 0.00 0.00 0.00 0.00 0.00 0.00 0.00 0.00 0.00 0.00 0.00 0.00 0.00 0.00 0.00 0.01 0.01 0.01 0.01 0.02 0.05 0.04 0.09 0.13 0.11 0.07 0.05 0.09 0.06 0.05 0.10 0.11 0.08 0.08 0.05 0.04 0.05 0.05 0.05 0.05 0.04 0.04 0.04
0.00 0.00 0.00 0.00 0.00 0.00 0.00 0.00 0.00 0.00 0.00 0.00 0.00 0.00 0.00 0.00 0.00 0.01 0.01 0.01 0.00 0.01 0.02 0.04 0.04 0.03 0.05 0.07 0.13 0.08 0.09 0.16 0.14 0.09 0.10 0.09 0.05 0.04 0.05 0.07 0.07 0.06 0.04 0.04
0.00 0.00 0.00 0.00 0.00 0.00 0.00 0.00 0.00 0.00 0.00 0.00 0.00 0.00 0.00 0.00 0.00 0.01 0.01 0.01 0.00 0.01 0.01 0.03 0.05 0.06 0.05 0.07 0.08 0.08 0.12 0.17 0.14 0.11 0.10 0.12 0.07 0.03 0.02 0.03 0.05 0.06 0.05 0.05
0.00 0.00 0.00 0.00 0.00 0.00 0.00 0.00 0.00 0.00 0.00 0.00 0.00 0.00 0.00 0.00 0.00 0.01 0.01 0.00 0.00 0.00 0.01 0.03 0.05 0.08 0.07 0.07 0.07 0.06 0.09 0.10 0.09 0.08 0.07 0.09 0.07 0.02 0.02 0.02 0.04 0.05 0.06 0.05
0.00 0.00 0.00 0.00 0.00 0.00 0.00 0.00 0.00 0.00 0.00 0.00 0.00 0.00 0.00 0.00 0.00 0.00 0.00 0.00 0.00 0.00 0.01 0.03 0.05 0.08 0.07 0.07 0.05 0.05 0.05 0.07 0.07 0.06 0.05 0.04 0.05 0.03 0.02 0.03 0.03 0.04 0.06 0.05
0.00 0.00 0.00 0.00 0.00 0.00 0.00 0.00 0.00 0.00 0.00 0.00 0.00 0.00 0.00 0.00 0.00 0.00 0.00 0.00 0.00 0.00 0.01 0.02 0.04 0.05 0.07 0.06 0.05 0.05 0.04 0.05 0.05 0.05 0.04 0.03 0.03 0.03 0.02 0.02 0.02 0.04 0.06 0.06
0.00 0.00 0.00 0.00 0.00 0.00 0.00 0.00 0.00 0.00 0.00 0.00 0.00 0.00 0.00 0.00 0.00 0.00 0.00 0.00 0.00 0.00 0.00 0.01 0.02 0.02 0.03 0.03 0.04 0.05 0.04 0.03 0.04 0.05 0.05 0.03 0.03 0.03 0.02 0.02 0.02 0.03 0.04 0.06
0.00 0.00 0.00 0.00 0.00 0.00 0.00 0.00 0.00 0.00 0.00 0.00 0.00 0.00 0.00 0.00 0.00 0.00 0.00 0.00 0.00 0.00 0.00 0.01 0.01 0.01 0.01 0.02 0.03 0.03 0.03 0.03 0.04 0.06 0.05 0.04 0.04 0.04 0.03 0.02 0.02 0.04 0.04 0.06
0.00 0.00 0.00 0.00 0.00 0.00 0.00 0.00 0.00 0.00 0.00 0.00 0.00 0.00 0.00 0.00 0.00 0.00 0.00 0.00 0.00 0.00 0.00 0.00 0.00 0.00 0.01 0.01 0.02 0.02 0.02 0.02 0.03 0.03 0.05 0.05 0.05 0.04 0.03 0.03 0.03 0.04 0.05 0.07
0.00 0.00 0.00 0.00 0.00 0.00 0.00 0.00 0.00 0.00 0.00 0.00 0.00 0.00 0.00 0.00 0.00 0.00 0.00 0.00 0.00 0.00 0.00 0.00 0.00 0.00 0.01 0.01 0.01 0.02 0.01 0.01 0.01 0.02 0.03 0.03 0.03 0.03 0.03 0.03 0.03 0.03 0.03 0.05
0.00 0.00 0.00 0.00 0.00 0.00 0.00 0.00 0.00 0.00 0.00 0.00 0.00 0.00 0.00 0.00 0.00 0.00 0.00 0.00 0.00 0.00 0.00 0.00 0.00 0.01 0.00 0.00 0.00 0.01 0.01 0.01 0.01 0.02 0.02 0.03 0.04 0.04 0.04 0.03 0.03 0.03 0.03 0.04
0.00 0.00 0.00 0.00 0.00 0.00 0.00 0.00 0.00 0.00 0.00 0.00 0.00 0.00 0.00 0.00 0.00 0.00 0.00 0.00 0.00 0.00 0.00 0.00 0.00 0.01 0.00 0.00 0.00 0.01 0.00 0.00 0.01 0.01 0.01 0.02 0.03 0.03 0.03 0.03 0.03 0.03 0.04 0.06
0.00 0.00 0.00 0.00 0.00 0.00 0.00 0.00 0.00 0.00 0.00 0.00 0.00 0.00 0.00 0.00 0.00 0.00 0.00 0.00 0.00 0.00 0.00 0.00 0.01 0.01 0.00 0.00 0.01 0.00 0.00 0.00 0.01 0.01 0.01 0.02 0.02 0.02 0.02 0.02 0.03 0.04 0.05 0.05
0.00 0.00 0.00 0.00 0.00 0.00 0.00 0.00 0.00 0.00 0.00 0.00 0.00 0.00 0.00 0.00 0.00 0.00 0.00 0.00 0.00 0.00 0.00 0.00 0.00 0.00 0.00 0.01 0.00 0.01 0.01 0.01 0.01 0.01 0.01 0.02 0.02 0.02 0.02 0.03 0.03 0.04 0.04 0.04
0.00 0.00 0.00 0.00 0.00 0.00 0.00 0.00 0.00 0.00 0.00 0.00 0.00 0.00 0.00 0.00 0.00 0.00 0.00 0.00 0.00 0.00 0.00 0.00 0.00 0.01 0.02 0.02 0.01 0.01 0.01 0.01 0.02 0.01 0.02 0.03 0.03 0.04 0.04 0.03 0.04 0.04 0.05 0.05
0.00 0.00 0.00 0.00 0.00 0.00 0.00 0.00 0.00 0.00 0.00 0.00 0.00 0.00 0.00 0.00 0.00 0.00 0.00 0.00 0.00 0.00 0.00 0.00 0.01 0.02 0.03 0.04 0.03 0.03 0.02 0.03 0.04 0.04 0.03 0.03 0.03 0.04 0.03 0.02 0.04 0.06 0.07 0.06
0.00 0.00 0.00 0.00 0.00 0.00 0.00 0.00 0.00 0.00 0.00 0.00 0.00 0.00 0.00 0.00 0.00 0.00 0.00 0.00 0.00 0.00 0.00 0.00 0.00 0.01 0.02 0.03 0.04 0.05 0.05 0.03 0.04 0.06 0.04 0.03 0.03 0.03 0.02 0.03 0.03 0.02 0.03 0.04
0.00 0.00 0.00 0.00 0.00 0.00 0.00 0.00 0.00 0.00 0.00 0.00 0.00 0.00 0.00 0.00 0.00 0.00 0.00 0.00 0.00 0.00 0.00 0.00 0.01 0.01 0.02 0.03 0.04 0.05 0.05 0.05 0.04 0.05 0.05 0.04 0.03 0.02 0.02 0.02 0.02 0.02 0.02 0.02
0.00 0.00 0.00 0.00 0.00 0.00 0.00 0.00 0.00 0.00 0.00 0.00 0.00 0.00 0.01 0.01 0.01 0.01 0.01 0.01 0.01 0.01 0.01 0.01 0.01 0.02 0.02 0.02 0.03 0.05 0.09 0.09 0.04 0.04 0.04 0.03 0.03 0.02 0.01 0.01 0.01 0.02 0.02 0.02
0.00 0.00 0.00 0.00 0.00 0.00 0.00 0.00 0.00 0.00 0.00 0.01 0.01 0.01 0.01 0.01 0.01 0.01 0.01 0.02 0.02 0.02 0.01 0.01 0.01 0.02 0.03 0.03 0.04 0.06 0.08 0.06 0.03 0.03 0.03 0.03 0.02 0.02 0.02 0.02 0.01 0.01 0.01 0.02
0.00 0.00 0.00 0.00 0.00 0.00 0.00 0.00 0.00 0.00 0.00 0.01 0.01 0.02 0.02 0.02 0.02 0.02 0.02 0.02 0.02 0.02 0.01 0.02 0.03 0.03 0.03 0.03 0.04 0.05 0.05 0.05 0.04 0.03 0.03 0.02 0.02 0.02 0.01 0.01 0.01 0.01 0.01 0.00
0.00 0.00 0.00 0.00 0.00 0.00 0.00 0.00 0.00 0.00 0.00 0.01 0.02 0.04 0.04 0.03 0.03 0.04 0.04 0.03 0.02 0.02 0.02 0.03 0.04 0.04 0.04 0.05 0.06 0.07 0.06 0.05 0.04 0.03 0.02 0.01 0.02 0.01 0.02 0.01 0.01 0.01 0.01 0.00
0.00 0.00 0.00 0.00 0.00 0.00 0.00 0.00 0.00 0.01 0.01 0.01 0.02 0.03 0.04 0.05 0.04 0.04 0.04 0.04 0.04 0.03 0.04 0.05 0.06 0.05 0.06 0.07 0.09 0.09 0.08 0.06 0.05 0.05 0.03 0.02 0.03 0.03 0.03 0.03 0.02 0.01 0.01 0.01
0.01 0.00 0.01 0.01 0.01 0.01 0.01 0.01 0.01 0.01 0.01 0.01 0.02 0.02 0.02 0.02 0.03 0.04 0.04 0.05 0.06 0.06 0.06 0.07 0.09 0.10 0.10 0.10 0.10 0.11 0.12 0.10 0.08 0.06 0.05 0.05 0.04 0.03 0.04 0.03 0.02 0.02 0.01 0.02
0.01 0.01 0.01 0.01 0.01 0.02 0.01 0.01 0.02 0.02 0.02 0.02 0.03 0.03 0.03 0.03 0.04 0.05 0.06 0.07 0.08 0.08 0.07 0.09 0.12 0.13 0.14 0.15 0.14 0.13 0.12 0.11 0.09 0.07 0.06 0.05 0.04 0.04 0.03 0.03 0.03 0.03 0.03 0.03
0.01 0.01 0.01 0.01 0.01 0.02 0.02 0.02 0.02 0.03 0.03 0.05 0.07 0.08 0.09 0.08 0.07 0.08 0.08 0.08 0.08 0.08 0.07 0.07 0.10 0.13 0.13 0.15 0.15 0.14 0.14 0.14 0.13 0.11 0.09 0.09 0.08 0.07 0.06 0.06 0.05 0.04 0.04 0.04
MSLP
1012.27 1013.05 1013.64 1014.01 1014.20 1014.25 1014.21 1014.12 1014.01 1013.90 1013.78 1013.64 1013.48 1013.32 1013.16 1013.05 1013.01 1013.05 1013.19 1013.39 1013.64 1013.89 1014.10 1014.25 1014.33 1014.37 1014.39 1014.44 1014.56 1014.78 1015.10 1015.50 1015.94 1016.37 1016.75 1017.04 1017.24 1017.35 1017.41 1017.44 1017.49 1017.58 1017.73 1017.94
1013.01 1013.61 1014.00 1014.20 1014.28 1014.29 1014.29 1014.31 1014.35 1014.39 1014.40 1014.34 1014.19 1013.96 1013.68 1013.40 1013.18 1013.07 1013.08 1013.22 1013.46 1013.74 1014.01 1014.22 1014.36 1014.42 1014.45 1014.48 1014.57 1014.75 1015.06 1015.46 1015.93 1016.41 1016.84 1017.18 1017.41 1017.52 1017.54 1017.52 1017.51 1017.54 1017.64 1017.82
1013.51 1013.90 1014.09 1014.14 1014.14 1014.16 1014.25 1014.43 1014.67 1014.91 1015.08 1015.11 1014.97 1014.66 1014.24 1013.76 1013.34 1013.03 1012.90 1012.95 1013.16 1013.47 1013.80 1014.08 1014.29 1014.40 1014.44 1014.46 1014.52 1014.68 1014.96 1015.36 1015.85 1016.37 1016.85 1017.24 1017.50 1017.63 1017.64 1017.58 1017.52 1017.50 1017.57 1017.73
1013.78 1013.96 1013.97 1013.91 1013.88 1013.97 1014.21 1014.60 1015.08 1015.54 1015.88 1016.00 1015.86 1015.46 1014.87 1014.18 1013.52 1013.00 1012.70 1012.65 1012.81 1013.13 1013.52 1013.87 1014.14 1014.30 1014.36 1014.38 1014.41 1014.53 1014.78 1015.16 1015.65 1016.20 1016.72 1017.16 1017.46 1017.61 1017.63 1017.57 1017.48 1017.44 1017.48 1017.62
1013.88 1013.87 1013.75 1013.64 1013.64 1013.84 1014.28 1014.91 1015.64 1016.33 1016.83 1017.04 1016.88 1016.38 1015.60 1014.68 1013.77 1013.03 1012.55 1012.37 1012.48 1012.80 1013.22 1013.64 1013.98 1014.18 1014.25 1014.25 1014.25 1014.31 1014.51 1014.85 1015.32 1015.87 1016.42 1016.90 1017.24 1017.44 1017.49 1017.44 1017.36 1017.31 1017.34 1017.49
1013.87 1013.73 1013.54 1013.42 1013.50 1013.86 1014.52 1015.40 1016.38 1017.28 1017.92 1018.18 1017.98 1017.36 1016.39 1015.23 1014.09 1013.13 1012.46 1012.17 1012.21 1012.52 1012.98 1013.45 1013.83 1014.06 1014.15 1014.12 1014.07 1014.07 1014.19 1014.47 1014.90 1015.42 1015.98 1016.48 1016.87 1017.11 1017.21 1017.19 1017.14 1017.10 1017.14 1017.29
1013.85 1013.62 1013.40 1013.33 1013.53 1014.06 1014.93 1016.04 1017.23 1018.28 1019.02 1019.30 1019.05 1018.29 1017.14 1015.77 1014.42 1013.26 1012.44 1012.04 1012.02 1012.32 1012.80 1013.32 1013.74 1014.00 1014.08 1014.02 1013.91 1013.83 1013.87 1014.07 1014.43 1014.92 1015.46 1015.98 1016.40 1016.69 1016.83 1016.86 1016.83 1016.82 1016.88 1017.03
1013.84 1013.58 1013.38 1013.39 1013.71 1014.41 1015.45 1016.73 1018.06 1019.21 1019.99 1020.24 1019.91 1019.03 1017.72 1016.19 1014.67 1013.37 1012.44 1011.96 1011.91 1012.21 1012.71 1013.25 1013.70 1013.98 1014.06 1013.98 1013.81 1013.66 1013.61 1013.73 1014.02 1014.45 1014.96 1015.47 1015.91 1016.23 1016.41 1016.48 1016.49 1016.51 1016.58 1016.74
1013.86 1013.61 1013.46 1013.55 1013.98 1014.80 1015.96 1017.33 1018.71 1019.88 1020.64 1020.83 1020.41 1019.43 1018.01 1016.37 1014.75 1013.38 1012.39 1011.88 1011.83 1012.13 1012.66 1013.23 1013.72 1014.01 1014.10 1014.00 1013.80 1013.59 1013.47 1013.51 1013.73 1014.10 1014.57 1015.06 1015.50 1015.83 1016.04 1016.13 1016.17 1016.20 1016.28 1016.44
1013.87 1013.66 1013.58 1013.74 1014.25 1015.13 1016.32 1017.70 1019.05 1020.15 1020.83 1020.94 1020.45 1019.39 1017.92 1016.25 1014.62 1013.24 1012.27 1011.78 1011.74 1012.07 1012.62 1013.23 1013.73 1014.06 1014.16 1014.06 1013.85 1013.62 1013.46 1013.45 1013.61 1013.93 1014.35 1014.80 1015.22 1015.54 1015.75 1015.86 1015.91 1015.95 1016.02 1016.18
1013.84 1013.69 1013.67 1013.89 1014.43 1015.30 1016.45 1017.74 1018.97 1019.96 1020.51 1020.53 1019.97 1018.89 1017.44 1015.82 1014.25 1012.95 1012.05 1011.61 1011.62 1011.98 1012.56 1013.18 1013.71 1014.06 1014.19 1014.13 1013.94 1013.73 1013.57 1013.54 1013.67 1013.94 1014.32 1014.73 1015.10 1015.40 1015.59 1015.69 1015.74 1015.77 1015.84 1015.98
1013.75 1013.67 1013.70 1013.94 1014.47 1015.28 1016.31 1017.45 1018.51 1019.32 1019.74 1019.66 1019.07 1018.02 1016.65 1015.15 1013.72 1012.55 1011.76 1011.41 1011.47 1011.86 1012.43 1013.06 1013.60 1013.98 1014.15 1014.14 1014.01 1013.85 1013.73 1013.73 1013.85 1014.10 1014.43 1014.79 1015.12 1015.37 1015.53 1015.61 1015.63 1015.66 1015.72 1015.85
1013.61 1013.59 1013.66 1013.91 1014.39 1015.09 1015.96 1016.90 1017.75 1018.38 1018.66 1018.50 1017.90 1016.93 1015.69 1014.36 1013.12 1012.11 1011.46 1011.19 1011.29 1011.68 1012.24 1012.84 1013.37 1013.76 1013.98 1014.04 1014.00 1013.92 1013.88 1013.92 1014.07 1014.32 1014.62 1014.93 1015.20 1015.40 1015.52 1015.56 1015.57 1015.58 1015.64 1015.77
1013.46 1013.51 1013.61 1013.85 1014.25 1014.81 1015.50 1016.22 1016.86 1017.30 1017.44 1017.23 1016.66 1015.79 1014.72 1013.59 1012.54 1011.71 1011.18 1010.98 1011.09 1011.45 1011.95 1012.50 1013.00 1013.38 1013.64 1013.78 1013.83 1013.87 1013.93 1014.05 1014.25 1014.51 1014.79 1015.06 1015.28 1015.42 1015.49 1015.50 1015.49 1015.50 1015.57 1015.72
1013.41 1013.50 1013.62 1013.82 1014.14 1014.56 1015.05 1015.55 1015.98 1016.24 1016.27 1016.02 1015.50 1014.75 1013.86 1012.93 1012.08 1011.40 1010.97 1010.81 1010.89 1011.17 1011.58 1012.04 1012.47 1012.84 1013.12 1013.33 1013.49 1013.65 1013.83 1014.05 1014.31 1014.60 1014.88 1015.11 1015.29 1015.38 1015.41 1015.40 1015.38 1015.40 1015.49 1015.67
1013.51 1013.64 1013.77 1013.93 1014.15 1014.42 1014.73 1015.03 1015.26 1015.36 1015.29 1015.02 1014.55 1013.92 1013.19 1012.44 1011.75 1011.20 1010.82 1010.65 1010.67 1010.84 1011.12 1011.46 1011.81 1012.13 1012.43 1012.71 1012.98 1013.26 1013.57 1013.89 1014.23 1014.56 1014.85 1015.07 1015.22 1015.28 1015.28 1015.26 1015.25 1015.29 1015.40 1015.62
1013.85 1013.99 1014.10 1014.21 1014.32 1014.45 1014.58 1014.70 1014.75 1014.72 1014.56 1014.27 1013.85 1013.32 1012.72 1012.11 1011.55 1011.07 1010.72 1010.50 1010.42 1010.46 1010.59 1010.79 1011.04 1011.32 1011.62 1011.96 1012.33 1012.73 1013.16 1013.60 1014.03 1014.41 1014.73 1014.95 1015.09 1015.14 1015.14 1015.12 1015.12 1015.19 1015.34 1015.59
1014.41 1014.54 1014.62 1014.66 1014.66 1014.65 1014.62 1014.57 1014.47 1014.31 1014.08 1013.76 1013.37 1012.92 1012.42 1011.91 1011.42 1010.98 1010.61 1010.33 1010.14 1010.03 1010.02 1010.09 1010.23 1010.46 1010.77 1011.15 1011.61 1012.12 1012.67 1013.22 1013.74 1014.20 1014.56 1014.81 1014.97 1015.03 1015.04 1015.04 1015.08 1015.17 1015.36 1015.63
1015.15 1015.24 1015.25 1015.20 1015.10 1014.96 1014.78 1014.57 1014.33 1014.07 1013.77 1013.44 1013.06 1012.66 1012.22 1011.78 1011.33 1010.90 1010.50 1010.15 1009.84 1009.61 1009.46 1009.41 1009.48 1009.66 1009.96 1010.39 1010.92 1011.53 1012.19 1012.84 1013.46 1013.99 1014.42 1014.72 1014.92 1015.02 1015.07 1015.11 1015.18 1015.31 1015.51 1015.80
1015.95 1015.97 1015.90 1015.75 1015.53 1015.26 1014.95 1014.62 1014.27 1013.92 1013.57 1013.21 1012.85 1012.48 1012.09 1011.69 1011.27 1010.84 1010.41 1009.99 1009.60 1009.26 1009.01 1008.87 1008.87 1009.01 1009.32 1009.77 1010.36 1011.05 1011.79 1012.54 1013.24 1013.85 1014.35 1014.73 1014.99 1015.16 1015.26 1015.35 1015.46 1015.62 1015.84 1016.12
1016.67 1016.59 1016.42 1016.17 1015.84 1015.46 1015.05 1014.62 1014.20 1013.79 1013.40 1013.04 1012.69 1012.35 1012.00 1011.64 1011.25 1010.82 1010.38 1009.92 1009.48 1009.08 1008.76 1008.56 1008.50 1008.62 1008.91 1009.38 1010.00 1010.73 1011.53 1012.35 1013.12 1013.81 1014.39 1014.85 1015.20 1015.44 1015.62 1015.78 1015.93 1016.11 1016.33 1016.59
1017.18 1017.00 1016.73 1016.37 1015.95 1015.49 1015.01 1014.53 1014.06 1013.64 1013.25 1012.90 1012.59 1012.29 1011.99 1011.67 1011.31 1010.92 1010.49 1010.03 1009.57 1009.14 1008.79 1008.55 1008.46 1008.54 1008.81 1009.27 1009.88 1010.62 1011.44 1012.29 1013.11 1013.86 1014.51 1015.06 1015.49 1015.83 1016.10 1016.33 1016.53 1016.74 1016.96 1017.18
1017.42 1017.13 1016.76 1016.33 1015.84 1015.33 1014.82 1014.33 1013.87 1013.46 1013.11 1012.81 1012.55 1012.31 1012.08 1011.82 1011.52 1011.18 1010.79 1010.36 1009.92 1009.50 1009.14 1008.88 1008.76 1008.81 1009.04 1009.44 1010.01 1010.71 1011.51 1012.34 1013.17 1013.96 1014.67 1015.30 1015.82 1016.26 1016.62 1016.92 1017.18 1017.41 1017.63 1017.83
1017.35 1016.98 1016.53 1016.04 1015.53 1015.01 1014.51 1014.05 1013.64 1013.30 1013.01 1012.79 1012.60 1012.45 1012.29 1012.11 1011.89 1011.62 1011.30 1010.93 1010.54 1010.15 1009.80 1009.53 1009.39 1009.38 1009.54 1009.87 1010.35 1010.97 1011.69 1012.48 1013.28 1014.08 1014.83 1015.51 1016.12 1016.64 1017.09 1017.47 1017.79 1018.06 1018.28 1018.45
1017.04 1016.59 1016.10 1015.59 1015.08 1014.59 1014.15 1013.75 1013.43 1013.17 1012.98 1012.84 1012.75 1012.68 1012.61 1012.52 1012.39 1012.21 1011.97 1011.68 1011.35 1011.01 1010.69 1010.43 1010.25 1010.19 1010.26 1010.49 1010.85 1011.35 1011.97 1012.66 1013.41 1014.17 1014.93 1015.65 1016.32 1016.93 1017.46 1017.91 1018.29 1018.60 1018.83 1019.00
1016.59 1016.09 1015.59 1015.08 1014.61 1014.18 1013.81 1013.50 1013.27 1013.11 1013.01 1012.96 1012.96 1012.97 1012.98 1012.98 1012.93 1012.84 1012.69 1012.48 1012.23 1011.96 1011.68 1011.42 1011.22 1011.11 1011.10 1011.21 1011.44 1011.81 1012.29 1012.88 1013.54 1014.25 1014.99 1015.72 1016.44 1017.10 1017.70 1018.22 1018.65 1019.00 1019.25 1019.42
Thickness
5816 5802 5794 5802 5806 5807 5802 5795 5791 5801 5817 5812 5805 5805 5811 5815 5814 5810 5807 5804 5800 5798 5799 5798 5795 5791 5785 5780 5774 5769 5764 5760 5757 5753 5750 5748 5746 5747 5746 5745 5745 5743 5742 5741
5796 5793 5807 5813 5812 5808 5802 5795 5794 5803 5815 5810 5802 5803 5811 5814 5814 5815 5811 5807 5803 5798 5797 5796 5793 5790 5785 5780 5776 5771 5766 5761 5758 5756 5754 5752 5749 5748 5747 5746 5745 5743 5742 5741
5791 5800 5814 5812 5807 5803 5801 5797 5798 5798 5805 5805 5801 5794 5803 5813 5817 5816 5814 5811 5807 5802 5797 5795 5793 5790 5787 5783 5778 5774 5769 5764 5760 5758 5754 5752 5749 5747 5745 5745 5744 5744 5743 5741
5793 5805 5809 5807 5804 5803 5792 5809 5807 5802 5789 5777 5788 5767 5792 5801 5807 5811 5812 5811 5809 5806 5802 5797 5795 5792 5789 5786 5781 5776 5771 5766 5762 5759 5756 5752 5748 5745 5746 5746 5745 5744 5743 5742
5789 5803 5804 5801 5808 5809 5803 5809 5803 5796 5785 5772 5775 5766 5778 5796 5799 5807 5812 5813 5812 5809 5806 5801 5798 5795 5791 5787 5782 5778 5773 5768 5764 5760 5758 5754 5751 5749 5747 5746 5744 5744 5743 5742
5794 5807 5810 5810 5816 5815 5809 5797 5786 5772 5765 5753 5768 5763 5768 5786 5801 5809 5815 5816 5815 5812 5808 5804 5801 5797 5792 5788 5783 5779 5773 5769 5765 5762 5759 5756 5752 5749 5746 5745 5743 5742 5741 5741
5782 5795 5808 5816 5806 5806 5798 5771 5746 5745 5735 5742 5762 5761 5769 5802 5812 5815 5817 5818 5817 5813 5809 5804 5800 5796 5792 5788 5784 5779 5774 5770 5766 5763 5760 5757 5754 5751 5747 5745 5743 5741 5739 5739
5760 5763 5794 5807 5803 5792 5788 5774 5745 5734 5730 5738 5757 5757 5785 5813 5819 5823 5823 5821 5818 5813 5809 5806 5802 5798 5794 5790 5785 5781 5775 5771 5767 5763 5760 5758 5755 5751 5749 5747 5744 5742 5740 5740
5752 5760 5793 5806 5811 5800 5781 5771 5769 5744 5739 5735 5746 5764 5792 5815 5816 5818 5819 5818 5815 5813 5810 5807 5804 5800 5795 5791 5787 5783 5777 5772 5769 5765 5762 5758 5755 5752 5749 5747 5745 5743 5741 5740
5766 5761 5782 5796 5802 5796 5791 5770 5752 5739 5725 5727 5743 5754 5769 5799 5807 5812 5813 5814 5815 5813 5810 5807 5804 5801 5797 5793 5789 5784 5779 5774 5771 5767 5763 5760 5756 5753 5750 5747 5745 5743 5741 5739
5769 5758 5767 5779 5782 5778 5775 5766 5750 5736 5737 5724 5727 5751 5794 5801 5810 5811 5814 5816 5816 5813 5811 5808 5805 5802 5799 5794 5789 5783 5779 5775 5771 5767 5764 5760 5757 5754 5751 5748 5745 5743 5741 5738
5762 5748 5743 5761 5783 5790 5785 5771 5756 5746 5737 5730 5731 5754 5811 5810 5814 5814 5815 5818 5818 5816 5813 5809 5806 5802 5797 5793 5789 5784 5780 5775 5772 5768 5764 5760 5757 5754 5751 5747 5745 5742 5739 5737
5757 5740 5729 5740 5756 5773 5774 5768 5763 5750 5733 5722 5728 5758 5806 5808 5811 5814 5815 5816 5816 5815 5811 5808 5804 5800 5796 5792 5788 5784 5781 5777 5773 5769 5764 5760 5757 5753 5750 5746 5743 5741 5737 5734
5762 5739 5734 5731 5742 5760 5766 5766 5760 5753 5735 5729 5740 5763 5790 5799 5804 5809 5812 5814 5813 5812 5810 5806 5802 5798 5795 5792 5788 5785 5780 5777 5773 5769 5764 5760 5756 5753 5749 5746 5742 5739 5736 5732
5753 5737 5742 5750 5760 5764 5768 5767 5761 5761 5754 5747 5758 5763 5784 5796 5803 5809 5811 5811 5810 5808 5807 5805 5801 5798 5794 5790 5787 5784 5779 5776 5773 5767 5762 5758 5755 5752 5747 5743 5740 5737 5733 5729
5737 5734 5738 5745 5754 5758 5760 5765 5764 5765 5763 5762 5767 5770 5792 5797 5803 5805 5807 5807 5806 5807 5807 5806 5802 5799 5795 5791 5786 5783 5779 5775 5771 5765 5760 5756 5752 5749 5745 5741 5737 5733 5729 5726
5722 5725 5722 5722 5742 5747 5740 5757 5761 5764 5767 5767 5764 5776 5788 5792 5796 5800 5804 5805 5806 5807 5807 5804 5802 5800 5796 5792 5788 5783 5778 5773 5768 5762 5757 5753 5749 5745 5742 5738 5734 5729 5725 5722
5716 5712 5706 5709 5723 5713 5740 5764 5766 5763 5763 5766 5770 5777 5784 5789 5795 5800 5804 5804 5805 5806 5806 5805 5802 5799 5796 5792 5787 5782 5776 5770 5764 5758 5754 5750 5746 5741 5738 5734 5730 5725 5721 5718
5714 5709 5698 5695 5702 5716 5740 5755 5757 5753 5753 5764 5766 5772 5779 5787 5792 5793 5801 5803 5803 5805 5806 5805 5803 5799 5792 5787 5783 5777 5771 5765 5760 5754 5750 5747 5742 5737 5733 5729 5725 5721 5717 5713
5702 5704 5695 5689 5695 5697 5727 5749 5757 5754 5742 5761 5763 5765 5771 5777 5769 5779 5793 5797 5798 5799 5800 5800 5799 5795 5789 5784 5779 5772 5766 5760 5756 5752 5747 5744 5740 5735 5730 5725 5721 5717 5713 5709
5685 5685 5684 5684 5688 5700 5724 5738 5748 5728 5732 5753 5757 5760 5763 5764 5768 5777 5785 5788 5790 5791 5792 5793 5791 5787 5783 5779 5774 5766 5761 5756 5753 5749 5744 5740 5735 5730 5726 5721 5717 5713 5708 5704
5670 5672 5672 5672 5677 5688 5718 5726 5724 5725 5738 5744 5749 5754 5757 5760 5766 5771 5775 5777 5779 5781 5782 5782 5780 5777 5775 5772 5767 5761 5756 5754 5749 5744 5739 5735 5730 5725 5721 5716 5711 5707 5703 5698
5659 5666 5666 5671 5677 5693 5705 5712 5720 5725 5729 5735 5740 5746 5750 5752 5756 5760 5762 5765 5768 5770 5771 5771 5768 5765 5763 5762 5759 5753 5750 5746 5742 5736 5731 5727 5723 5718 5714 5709 5704 5699 5696 5693
5653 5659 5661 5665 5676 5687 5696 5704 5711 5718 5722 5728 5734 5738 5741 5742 5745 5747 5749 5751 5754 5756 5757 5758 5756 5753 5751 5750 5749 5745 5741 5737 5734 5729 5723 5718 5714 5710 5706 5702 5698 5693 5689 5685
5641 5648 5651 5656 5667 5677 5686 5692 5699 5707 5714 5719 5724 5729 5731 5733 5733 5734 5736 5738 5740 5742 5745 5746 5743 5741 5740 5738 5737 5735 5731 5728 5724 5720 5715 5709 5706 5701 5696 5692 5688 5686 5681 5678
5631 5636 5641 5647 5659 5663 5671 5683 5691 5696 5701 5706 5711 5715 5719 5721 5722 5724 5724 5725 5726 5728 5731 5732 5730 5728 5727 5726 5725 5724 5722 5718 5713 5708 5704 5700 5695 5691 5686 5682 5677 5673 5670 5667